Torna al catalogo

STARLINK-37196

AttivoComunicazioniVLEO
NORAD 69163·PAYLOAD·🇺🇸 United States

Lanciato May 21, 2026 da Cape Canaveral Space Force Station

Loading…

Prossimi Passaggi (prossime 24 ore)

TLE

AggiornatoSource: CelesTrak SupGP

Epoca: Sep 14, 2026, 23:05 UTC

1 69163C 26111R   26257.96229167  .00053056  00000+0  15646-2 0  2579
2 69163  53.1579  91.6043 0000745 117.9843  59.7441 15.34423310    16

Traccia STARLINK-37196 in tempo reale con AllMySat

Download on the App Store